DW7325 Weather Reports


Display with metric or nautical units.
time (UTC)temp
F
wind
direction
speed
MPH
gust
MPH
rain 1hr
in
rain 24hr
in
rain mn
in
humidity
%
barometer
mb
20260506135100 60 171 0.0 2.0 0.06 0.26 0.26 92 1008.7
20260506134956 60 72 0.0 2.0 0.06 0.26 0.26 92 1008.7
20260506134852 60 303 0.0 2.0 0.08 0.26 0.26 92 1008.7
20260506134745 60 303 0.0 2.0 0.10 0.26 0.26 92 1008.7
20260506134643 60 303 0.0 2.0 0.12 0.26 0.26 92 1008.8
20260506134318 60 134 0.0 2.0 0.13 0.24 0.26 92 1008.5
20260506134211 60 114 0.0 2.0 0.13 0.24 0.26 92 1008.5
20260506134106 60 114 0.0 2.0 0.13 0.24 0.25 92 1008.5
20260506134001 60 130 0.0 0.0 0.20 0.24 0.25 92 1008.5
20260506133853 60 130 0.0 0.0 0.26 0.24 0.25 92 1008.6
20260506133746 60 130 0.0 2.0 0.26 0.24 0.25 92 1008.5
20260506133640 60 153 0.0 2.0 0.06 0.24 0.24 92 1008.6
20260506133059 60 142 0.0 1.0 0.06 0.23 0.23 92 1008.6
20260506132730 60 157 0.0 1.0 0.06 0.21 0.23 92 1008.7
20260506132624 60 157 0.0 1.0 0.06 0.21 0.23 92 1008.7
20260506132520 60 135 0.0 1.0 0.08 0.21 0.21 92 1008.7
20260506132417 60 135 0.0 1.0 0.09 0.21 0.21 91 1008.8
20260506132311 60 150 0.0 1.0 0.10 0.21 0.21 91 1008.8
20260506132206 60 162 0.0 1.0 0.13 0.21 0.21 91 1008.8
20260506132104 60 162 0.0 1.0 0.17 0.21 0.21 91 1008.8
20260506132000 61 161 0.0 1.0 0.24 0.21 0.21 91 1008.9
20260506131854 60 178 0.0 0.0 0.30 0.21 0.21 91 1008.8
20260506131749 60 137 0.0 0.0 0.30 0.21 0.21 91 1008.9
20260506131643 61 137 0.0 0.0 0.19 0.19 0.21 91 1008.8
20260506131538 61 137 0.0 0.0 0.19 0.19 0.21 91 1008.9
20260506131431 61 137 0.0 0.0 0.26 0.19 0.20 91 1008.9
20260506131326 61 111 0.0 2.0 0.30 0.19 0.20 91 1009.0
20260506131218 61 111 0.0 2.0 0.30 0.19 0.19 91 1009.0
20260506131113 61 102 0.0 2.0 0.55 0.18 0.19 91 1009.0
20260506131008 61 102 0.0 2.0 0.47 0.16 0.18 91 1009.1
20260506130905 61 192 0.0 1.0 0.17 0.16 0.17 91 1009.2
20260506130800 61 47 0.0 1.0 0.17 0.16 0.16 91 1009.0
20260506130655 61 47 0.0 1.0 0.10 0.16 0.16 91 1009.1
20260506130551 61 300 0.0 1.0 0.10 0.16 0.16 91 1009.1
20260506130444 61 94 0.0 1.0 0.10 0.14 0.16 91 1009.1
20260506130339 61 67 0.0 1.0 0.13 0.14 0.15 91 1009.1
20260506130236 61 101 0.0 0.0 0.17 0.14 0.15 91 1009.1
20260506130133 61 71 0.0 0.0 0.24 0.14 0.15 91 1009.1
20260506130025 61 110 0.0 0.0 0.25 0.13 0.15 91 1009.2
20260506125917 61 116 0.0 1.0 0.25 0.13 0.15 91 1009.2
20260506125812 61 116 0.0 1.0 0.36 0.13 0.13 91 1009.1
20260506125705 61 116 0.0 1.0 0.36 0.13 0.13 91 1009.0
20260506125557 61 68 0.0 1.0 0.40 0.12 0.13 91 1009.1
20260506125454 61 90 0.0 1.0 0.43 0.10 0.12 91 1009.1
20260506125351 61 90 0.0 1.0 0.71 0.09 0.12 90 1009.1
20260506125249 61 189 0.0 1.0 0.27 0.09 0.10 90 1009.1
20260506125144 61 189 0.0 1.0 0.40 0.09 0.10 90 1009.1
20260506125041 61 131 0.0 0.0 0.40 0.09 0.10 90 1009.1
20260506124936 61 189 0.0 0.0 0.40 0.08 0.09 90 1009.1
20260506124352 61 196 0.0 2.0 0.00 0.06 0.06 90 1009.1
20260506124249 61 254 0.0 2.0 0.00 0.06 0.06 90 1009.2
20260506123921 61 300 0.0 2.0 0.00 0.04 0.06 90 1009.1
20260506123819 61 277 0.0 2.0 0.00 0.04 0.05 90 1009.1
20260506123711 61 252 0.0 2.0 0.00 0.04 0.05 90 1009.0
20260506123344 61 303 0.0 0.0 0.00 0.04 0.05 89 1008.8
20260506123238 61 306 0.0 0.0 0.00 0.04 0.05 89 1008.7
20260506123133 61 306 0.0 0.0 0.00 0.04 0.05 89 1008.6
20260506123030 61 306 0.0 0.0 0.00 0.04 0.05 89 1008.6
20260506122928 61 306 0.0 0.0 0.00 0.04 0.05 89 1008.5
20260506122824 61 306 0.0 0.0 0.00 0.04 0.05 89 1008.4
20260506122722 61 306 0.0 0.0 0.00 0.04 0.05 89 1008.4
20260506122619 61 306 0.0 0.0 0.00 0.04 0.05 88 1008.4
20260506122516 61 306 0.0 0.0 0.00 0.04 0.05 88 1008.5
20260506122411 61 293 0.0 0.0 0.00 0.04 0.05 88 1008.4
20260506122306 61 293 0.0 0.0 0.00 0.04 0.05 88 1008.5
20260506122203 61 293 0.0 0.0 0.00 0.04 0.05 88 1008.5
20260506122056 61 293 0.0 0.0 0.00 0.04 0.05 88 1008.5
20260506121953 61 293 0.0 0.0 0.00 0.04 0.05 88 1008.5
20260506121851 61 293 0.0 0.0 0.00 0.04 0.05 88 1008.5
20260506121744 61 292 0.0 1.0 0.04 0.04 0.05 88 1008.5
20260506121639 61 293 0.0 1.0 0.04 0.04 0.05 88 1008.5
20260506121536 61 126 0.0 0.0 0.04 0.04 0.05 88 1008.5
20260506121434 62 126 0.0 0.0 0.05 0.04 0.05 88 1008.5
20260506121331 62 126 0.0 0.0 0.05 0.04 0.05 88 1008.4
20260506121228 62 126 0.0 0.0 0.05 0.04 0.05 88 1008.4
20260506121124 62 126 0.0 0.0 0.06 0.04 0.05 88 1008.4
20260506120756 62 138 0.0 0.0 0.09 0.04 0.05 87 1008.6
20260506120652 62 126 0.0 0.0 0.10 0.04 0.05 87 1008.7
20260506120550 62 126 0.0 0.0 0.10 0.04 0.05 87 1008.6
20260506120447 62 106 0.0 0.0 0.10 0.04 0.05 87 1008.6
20260506120343 62 106 0.0 0.0 0.10 0.04 0.05 87 1008.6
20260506120237 62 106 0.0 0.0 0.10 0.04 0.05 87 1008.6
20260506120132 62 106 0.0 3.0 0.10 0.04 0.05 87 1008.6
20260506120027 62 106 0.0 3.0 0.10 0.04 0.04 86 1008.6
20260506115700 62 106 0.0 3.0 0.10 0.04 0.04 86 1008.6
20260506115339 62 141 0.0 3.0 0.06 0.03 0.03 86 1008.7
20260506115236 62 215 0.0 3.0 0.06 0.03 0.03 85 1008.7
20260506115131 62 117 0.0 1.0 0.06 0.03 0.03 85 1008.9
20260506115025 62 132 0.0 1.0 0.06 0.02 0.03 85 1009.0
20260506114920 62 171 0.0 0.0 0.06 0.02 0.02 85 1009.0
20260506114815 62 241 0.0 0.0 0.06 0.02 0.02 85 1009.0
20260506114449 62 40 0.0 0.0 0.10 0.02 0.02 84 1009.0
20260506114119 63 313 0.0 0.0 0.10 0.01 0.02 84 1009.0
20260506114017 63 313 0.0 0.0 0.10 0.01 0.01 84 1009.0
20260506113426 63 99 0.0 2.0 0.00 0.00 0.01 83 1009.0
20260506113322 63 338 0.0 2.0 0.00 0.00 0.00 83 1009.0
20260506113215 63 192 0.0 2.0 0.00 0.00 0.00 83 1009.0
20260506112853 63 315 0.0 1.0 0.00 0.00 0.00 82 1008.9
20260506112751 63 309 0.0 1.0 0.00 0.00 0.00 82 1008.9
20260506112645 63 309 0.0 1.0 0.00 0.00 0.00 81 1008.8
20260506112537 63 309 0.0 0.0 0.00 0.00 0.00 81 1008.8
20260506112215 63 161 0.0 1.0 0.00 0.00 0.00 81 1008.6
20260506112110 63 118 0.0 1.0 0.00 0.00 0.00 80 1008.6
20260506112002 63 169 0.0 2.0 0.00 0.00 0.00 80 1008.6
20260506111858 63 140 0.0 2.0 0.00 0.00 0.00 80 1008.6
20260506111750 63 130 0.0 2.0 0.00 0.00 0.00 80 1008.5
20260506111647 63 130 0.0 2.0 0.00 0.00 0.00 80 1008.5
20260506111323 63 145 0.0 2.0 0.00 0.00 0.00 79 1008.5
20260506111217 63 145 0.0 2.0 0.00 0.00 0.00 79 1008.6
20260506111113 63 145 0.0 2.0 0.00 0.00 0.00 79 1008.5
20260506111006 63 161 0.0 2.0 0.00 0.00 0.00 79 1008.5
20260506110900 63 146 0.0 2.0 0.00 0.00 0.00 79 1008.5
20260506110756 64 122 0.0 2.0 0.00 0.00 0.00 79 1008.5
20260506110649 64 146 0.0 2.0 0.00 0.00 0.00 78 1008.5
20260506110543 64 101 0.0 2.0 0.00 0.00 0.00 78 1008.5
20260506110436 64 160 0.0 2.0 0.00 0.00 0.00 78 1008.4
20260506110116 64 107 0.0 2.0 0.00 0.00 0.00 77 1008.4
20260506105751 64 163 0.0 2.0 0.00 0.00 0.00 77 1008.4
20260506105647 64 84 0.0 2.0 0.00 0.00 0.00 76 1008.3
20260506105322 64 74 0.0 2.0 0.00 0.00 0.00 76 1008.3
20260506105219 64 227 0.0 2.0 0.00 0.00 0.00 76 1008.3
20260506104855 64 67 0.0 3.0 0.00 0.00 0.00 76 1008.2
20260506104749 64 135 0.0 3.0 0.00 0.00 0.00 76 1008.3
20260506104643 64 207 0.0 3.0 0.00 0.00 0.00 76 1008.3
20260506104315 64 158 0.0 3.0 0.00 0.00 0.00 76 1008.3
20260506103948 64 178 0.0 7.0 0.00 0.00 0.00 76 1008.2
20260506103841 64 137 0.0 7.0 0.00 0.00 0.00 75 1008.2
20260506103734 64 192 0.0 7.0 0.00 0.00 0.00 75 1008.1
20260506103629 64 5 0.0 7.0 0.00 0.00 0.00 75 1008.1
20260506103522 64 75 0.0 7.0 0.00 0.00 0.00 75 1008.1
20260506103420 64 30 0.0 7.0 0.00 0.00 0.00 75 1008.1
20260506103316 64 30 0.0 7.0 0.00 0.00 0.00 75 1008.0
20260506102947 64 152 0.0 7.0 0.00 0.00 0.00 75 1008.0
20260506102842 64 148 0.0 7.0 0.00 0.00 0.00 75 1008.0
20260506102738 64 110 0.0 7.0 0.00 0.00 0.00 75 1008.0
20260506102634 64 89 0.0 7.0 0.00 0.00 0.00 75 1008.0
20260506102529 64 136 0.0 7.0 0.00 0.00 0.00 75 1008.0
20260506102421 64 136 0.0 7.0 0.00 0.00 0.00 74 1008.1
20260506102313 64 138 0.0 7.0 0.00 0.00 0.00 75 1008.1
20260506102207 64 142 0.0 7.0 0.00 0.00 0.00 74 1008.1
20260506102103 64 136 0.0 7.0 0.00 0.00 0.00 74 1008.1
20260506101955 64 128 0.0 4.0 0.00 0.00 0.00 74 1008.0
20260506101634 65 55 0.0 4.0 0.00 0.00 0.00 74 1008.0
20260506101527 65 55 0.0 4.0 0.00 0.00 0.00 74 1008.0
20260506101424 65 150 0.0 4.0 0.00 0.00 0.00 73 1008.0
20260506101100 65 71 0.0 4.0 0.00 0.00 0.00 73 1008.0
20260506100952 65 36 0.0 4.0 0.00 0.00 0.00 73 1008.1
20260506100845 65 204 0.0 3.0 0.00 0.00 0.00 72 1008.1
20260506100740 65 170 0.0 3.0 0.00 0.00 0.00 72 1008.1
20260506100632 65 124 0.0 3.0 0.00 0.00 0.00 72 1008.1
20260506100525 65 146 0.0 3.0 0.00 0.00 0.00 72 1008.1
20260506100419 65 155 0.0 3.0 0.00 0.00 0.00 72 1008.1
20260506100316 65 180 0.0 3.0 0.00 0.00 0.00 72 1008.0
20260506100210 65 117 0.0 3.0 0.00 0.00 0.00 72 1008.0
20260506100105 65 207 0.0 3.0 0.00 0.00 0.00 72 1008.1
20260506095745 65 327 0.0 3.0 0.00 0.00 0.00 72 1008.1
20260506095643 65 139 0.0 2.0 0.00 0.00 0.00 72 1008.1
20260506095538 65 139 0.0 2.0 0.00 0.00 0.00 72 1008.1
20260506095433 65 103 0.0 2.0 0.00 0.00 0.00 72 1008.1
20260506095325 65 118 0.0 2.0 0.00 0.00 0.00 71 1008.1
20260506095222 65 167 0.0 2.0 0.00 0.00 0.00 71 1008.1
20260506095118 65 178 0.0 2.0 0.00 0.00 0.00 71 1008.1
20260506095015 65 79 0.0 2.0 0.00 0.00 0.00 72 1008.0
20260506094907 65 210 0.0 2.0 0.00 0.00 0.00 71 1008.0
20260506094800 65 114 0.0 2.0 0.00 0.00 0.00 71 1008.0
20260506094658 65 160 0.0 2.0 0.00 0.00 0.00 71 1008.0
20260506094553 65 140 0.0 2.0 0.00 0.00 0.00 71 1008.0
20260506094447 65 139 0.0 2.0 0.00 0.00 0.00 71 1008.0
20260506094345 65 84 0.0 2.0 0.00 0.00 0.00 71 1008.0
20260506094240 65 84 0.0 2.0 0.00 0.00 0.00 71 1008.1
20260506094135 65 173 0.0 2.0 0.00 0.00 0.00 70 1008.0
20260506093810 65 52 0.0 6.0 0.00 0.00 0.00 70 1008.1
20260506093705 65 157 0.0 6.0 0.00 0.00 0.00 70 1008.1
20260506093559 65 265 0.0 6.0 0.00 0.00 0.00 70 1008.1
20260506093456 65 133 0.0 6.0 0.00 0.00 0.00 70 1008.1
20260506093349 65 105 0.0 6.0 0.00 0.00 0.00 70 1008.2
20260506093243 65 346 0.0 6.0 0.00 0.00 0.00 70 1008.2
20260506093139 65 55 0.0 6.0 0.00 0.00 0.00 70 1008.2
20260506093032 65 109 0.0 6.0 0.00 0.00 0.00 70 1008.3
20260506092928 65 178 0.0 6.0 0.00 0.00 0.00 70 1008.2
20260506092820 65 107 0.0 6.0 0.00 0.00 0.00 70 1008.2
20260506092236 66 131 0.0 6.0 0.00 0.00 0.00 70 1008.2
20260506092129 66 290 1.0 6.0 0.00 0.00 0.00 70 1008.2
20260506092028 66 178 0.0 5.0 0.00 0.00 0.00 70 1008.1
20260506091919 66 152 0.0 4.0 0.00 0.00 0.00 70 1008.1
20260506091553 66 33 0.0 4.0 0.00 0.00 0.00 70 1008.1
20260506091448 66 123 0.0 4.0 0.00 0.00 0.00 69 1008.1
20260506091345 66 152 0.0 4.0 0.00 0.00 0.00 69 1008.1
20260506091238 66 115 0.0 4.0 0.00 0.00 0.00 69 1008.2
20260506091132 66 116 0.0 4.0 0.00 0.00 0.00 69 1008.1
20260506091027 66 190 0.0 3.0 0.00 0.00 0.00 69 1008.2
20260506090925 66 255 0.0 3.0 0.00 0.00 0.00 69 1008.2
20260506090818 66 154 0.0 3.0 0.00 0.00 0.00 69 1008.2
20260506090713 66 123 0.0 3.0 0.00 0.00 0.00 69 1008.3
20260506090607 66 59 0.0 3.0 0.00 0.00 0.00 69 1008.2
20260506090502 66 191 0.0 3.0 0.00 0.00 0.00 69 1008.3
20260506090358 66 159 0.0 3.0 0.00 0.00 0.00 69 1008.3
20260506090256 66 138 0.0 3.0 0.00 0.00 0.00 69 1008.3
20260506090151 66 96 0.0 5.0 0.00 0.00 0.00 69 1008.3
20260506085825 66 163 0.0 5.0 0.00 0.00 0.00 69 1008.3
20260506085721 66 163 0.0 5.0 0.00 0.00 0.00 69 1008.3
20260506085617 66 119 0.0 5.0 0.00 0.00 0.00 69 1008.4
20260506085252 66 188 0.0 5.0 0.00 0.00 0.00 69 1008.3
20260506085145 66 157 0.0 8.0 0.00 0.00 0.00 69 1008.3
20260506084825 66 194 1.0 8.0 0.00 0.00 0.00 69 1008.2
20260506084721 66 274 1.0 8.0 0.00 0.00 0.00 68 1008.2
20260506084617 66 109 1.0 8.0 0.00 0.00 0.00 68 1008.3
20260506084248 66 185 1.0 8.0 0.00 0.00 0.00 68 1008.3
20260506084145 66 57 1.0 8.0 0.00 0.00 0.00 68 1008.2
20260506084041 66 30 1.0 8.0 0.00 0.00 0.00 68 1008.2
20260506083936 66 101 1.0 8.0 0.00 0.00 0.00 68 1008.2
20260506083830 66 110 1.0 8.0 0.00 0.00 0.00 68 1008.3
20260506083725 66 212 1.0 8.0 0.00 0.00 0.00 68 1008.3
20260506083620 66 93 1.0 8.0 0.00 0.00 0.00 68 1008.3
20260506083513 66 179 0.0 8.0 0.00 0.00 0.00 68 1008.3
20260506083407 66 246 0.0 8.0 0.00 0.00 0.00 68 1008.3
20260506083304 66 184 0.0 8.0 0.00 0.00 0.00 68 1008.3
20260506083201 66 239 0.0 8.0 0.00 0.00 0.00 68 1008.3
20260506083053 66 106 0.0 4.0 0.00 0.00 0.00 68 1008.3
20260506082731 66 78 0.0 6.0 0.00 0.00 0.00 68 1008.4
20260506082624 66 78 0.0 6.0 0.00 0.00 0.00 68 1008.3
20260506082519 66 113 0.0 6.0 0.00 0.00 0.00 67 1008.2
20260506082155 66 125 0.0 6.0 0.00 0.00 0.00 68 1008.4
20260506082048 66 118 0.0 6.0 0.00 0.00 0.00 68 1008.4
20260506081721 66 159 0.0 10.0 0.00 0.00 0.00 68 1008.5
20260506081614 66 221 0.0 10.0 0.00 0.00 0.00 67 1008.5
20260506081511 66 119 0.0 10.0 0.00 0.00 0.00 67 1008.4
20260506080927 66 126 0.0 10.0 0.00 0.00 0.00 67 1008.5
20260506080821 66 132 0.0 10.0 0.00 0.00 0.00 67 1008.5
20260506080458 66 142 1.0 10.0 0.00 0.00 0.00 67 1008.3
20260506080352 66 160 1.0 10.0 0.00 0.00 0.00 67 1008.4
20260506080249 66 151 1.0 10.0 0.00 0.00 0.00 67 1008.4
20260506080147 66 151 1.0 10.0 0.00 0.00 0.00 67 1008.4
20260506073510 67 169 1.0 7.0 0.00 0.00 0.00 65 1008.3
20260506073403 67 158 1.0 7.0 0.00 0.00 0.00 65 1008.3
20260506073037 67 119 0.0 6.0 0.00 0.00 0.00 66 1008.4
20260506072930 67 70 0.0 6.0 0.00 0.00 0.00 66 1008.3
20260506072824 67 80 0.0 6.0 0.00 0.00 0.00 65 1008.4
20260506072720 67 133 0.0 6.0 0.00 0.00 0.00 65 1008.4
20260506072613 67 144 0.0 6.0 0.00 0.00 0.00 65 1008.4
20260506072248 67 82 0.0 6.0 0.00 0.00 0.00 65 1008.4
20260506072145 67 140 0.0 6.0 0.00 0.00 0.00 66 1008.5
20260506071817 67 202 1.0 6.0 0.00 0.00 0.00 66 1008.5
20260506071714 67 355 1.0 6.0 0.00 0.00 0.00 65 1008.5
20260506071612 67 40 1.0 6.0 0.00 0.00 0.00 65 1008.4
20260506071244 67 142 0.0 6.0 0.00 0.00 0.00 65 1008.4
20260506071138 67 120 0.0 6.0 0.00 0.00 0.00 65 1008.4
20260506071036 67 140 0.0 6.0 0.00 0.00 0.00 65 1008.4
20260506070929 67 134 0.0 6.0 0.00 0.00 0.00 65 1008.4
20260506070824 67 40 0.0 6.0 0.00 0.00 0.00 64 1008.4
20260506070718 67 181 0.0 6.0 0.00 0.00 0.00 64 1008.4
20260506070613 67 221 0.0 6.0 0.00 0.00 0.00 65 1008.5
20260506070505 67 157 0.0 6.0 0.00 0.00 0.00 64 1008.5
20260506070402 67 157 0.0 6.0 0.00 0.00 0.00 65 1008.5
20260506070256 67 174 0.0 6.0 0.00 0.00 0.00 64 1008.5
20260506062455 67 269 1.0 8.0 0.00 0.00 0.00 63 1009.0
20260506062346 67 203 1.0 8.0 0.00 0.00 0.00 63 1009.0
20260506062241 67 136 1.0 8.0 0.00 0.00 0.00 63 1009.1
20260506062136 67 78 1.0 8.0 0.00 0.00 0.00 63 1009.0
20260506062030 67 209 1.0 8.0 0.00 0.00 0.00 63 1009.1
20260506061927 67 242 0.0 8.0 0.00 0.00 0.00 63 1009.1
20260506061822 67 43 0.0 5.0 0.00 0.00 0.00 63 1009.1
20260506061717 67 145 0.0 5.0 0.00 0.00 0.00 63 1009.1
20260506061353 67 97 0.0 5.0 0.00 0.00 0.00 63 1009.0
20260506061024 67 157 0.0 5.0 0.00 0.00 0.00 63 1009.1
20260506060918 67 215 0.0 5.0 0.00 0.00 0.00 62 1009.1
20260506060554 67 229 0.0 5.0 0.00 0.00 0.00 62 1009.1
20260506060448 68 213 0.0 5.0 0.00 0.00 0.00 62 1009.2
20260506060346 68 80 0.0 5.0 0.00 0.00 0.00 62 1009.2
20260506060241 68 220 0.0 5.0 0.00 0.00 0.00 62 1009.1
20260506060134 68 117 0.0 5.0 0.00 0.00 0.00 62 1009.1
20260506051322 68 222 0.0 4.0 0.00 0.00 0.00 60 1009.2
20260506051220 68 175 0.0 4.0 0.00 0.00 0.00 60 1009.2
20260506051118 68 84 0.0 4.0 0.00 0.00 0.00 60 1009.2
20260506051014 68 88 0.0 4.0 0.00 0.00 0.00 60 1009.2
20260506050907 68 73 0.0 4.0 0.00 0.00 0.00 60 1009.2
20260506050803 68 189 0.0 4.0 0.00 0.00 0.00 60 1009.2
20260506050700 68 140 0.0 4.0 0.00 0.00 0.00 60 1009.2
20260506050555 68 134 0.0 4.0 0.00 0.00 0.00 60 1009.3
20260506050448 68 135 0.0 4.0 0.00 0.00 0.00 60 1009.3
20260506050340 68 243 0.0 4.0 0.00 0.00 0.00 60 1009.3
20260506050237 68 172 1.0 4.0 0.00 0.00 0.00 60 1009.3
20260506045133 68 32 0.0 4.0 0.00 0.00 0.00 60 1009.4
20260506045026 68 104 0.0 4.0 0.00 0.00 0.00 60 1009.4
20260506044443 68 122 0.0 13.0 0.00 0.00 0.00 60 1009.4
20260506044339 68 32 0.0 13.0 0.00 0.00 0.00 59 1009.4
20260506044234 68 277 0.0 13.0 0.00 0.00 0.00 59 1009.4
20260506043905 68 95 0.0 13.0 0.00 0.00 0.00 59 1009.4
20260506043539 68 30 1.0 13.0 0.00 0.00 0.00 60 1009.4
20260506043216 68 263 1.0 13.0 0.00 0.00 0.00 59 1009.3
20260506043110 68 92 1.0 13.0 0.00 0.00 0.00 59 1009.3
20260506043008 68 205 1.0 13.0 0.00 0.00 0.00 59 1009.4
20260506042905 68 223 1.0 13.0 0.00 0.00 0.00 59 1009.3
20260506042759 68 327 1.0 13.0 0.00 0.00 0.00 59 1009.3
20260506042654 68 180 1.0 13.0 0.00 0.00 0.00 59 1009.3
20260506042547 68 138 0.0 13.0 0.00 0.00 0.00 59 1009.3
20260506042444 68 205 0.0 5.0 0.00 0.00 0.00 59 1009.3
20260506042338 68 117 0.0 5.0 0.00 0.00 0.00 59 1009.3
20260506042233 68 164 0.0 5.0 0.00 0.00 0.00 59 1009.2
20260506042130 68 132 0.0 5.0 0.00 0.00 0.00 59 1009.2
20260506041800 68 30 0.0 5.0 0.00 0.00 0.00 59 1009.2
20260506041434 67 123 0.0 5.0 0.00 0.00 0.00 59 1009.3
20260506041328 67 123 0.0 5.0 0.00 0.00 0.00 59 1009.3
20260506041000 67 90 0.0 5.0 0.00 0.00 0.00 58 1009.3
20260506040853 67 223 0.0 5.0 0.00 0.00 0.00 58 1009.3
20260506040748 67 0 0.0 1.0 0.00 0.00 0.00 58 1009.3
20260506040643 67 139 0.0 1.0 0.00 0.00 0.00 58 1009.3
20260506040535 67 22 0.0 1.0 0.00 0.00 0.00 58 1009.3
20260506040429 67 172 0.0 0.0 0.00 0.00 0.00 58 1009.3
20260506040107 67 174 0.0 2.0 0.00 0.00 0.00 58 1009.3
20260506040003 67 16 0.0 2.0 0.00 0.00 0.00 58 1009.3
20260506035902 67 113 0.0 2.0 0.00 0.00 0.00 58 1009.3
20260506035759 67 113 0.0 2.0 0.00 0.00 0.00 58 1009.3
20260506035654 67 104 0.0 2.0 0.00 0.00 0.00 58 1009.2
20260506035548 67 136 0.0 2.0 0.00 0.00 0.00 58 1009.2
20260506035444 67 142 0.0 2.0 0.00 0.00 0.00 58 1009.3
20260506035338 67 168 0.0 1.0 0.00 0.00 0.00 58 1009.3
20260506035017 68 138 0.0 1.0 0.00 0.00 0.00 57 1009.3
20260506034910 68 161 0.0 1.0 0.00 0.00 0.00 57 1009.2
20260506034807 68 154 0.0 1.0 0.00 0.00 0.00 57 1009.2
20260506034702 68 63 0.0 1.0 0.00 0.00 0.00 57 1009.3
20260506034558 68 63 0.0 1.0 0.00 0.00 0.00 57 1009.3
20260506034451 68 62 0.0 1.0 0.00 0.00 0.00 57 1009.3
20260506034348 68 232 0.0 1.0 0.00 0.00 0.00 56 1009.3
20260506034244 68 115 0.0 1.0 0.00 0.00 0.00 56 1009.3
20260506034138 68 93 0.0 1.0 0.00 0.00 0.00 56 1009.3
20260506034036 68 93 0.0 1.0 0.00 0.00 0.00 56 1009.2
20260506033709 68 27 0.0 0.0 0.00 0.00 0.00 56 1009.2
20260506033339 68 27 0.0 0.0 0.00 0.00 0.00 55 1009.3
20260506033235 68 27 0.0 0.0 0.00 0.00 0.00 55 1009.3
20260506033131 68 27 0.0 0.0 0.00 0.00 0.00 54 1009.3
20260506033029 68 27 0.0 0.0 0.00 0.00 0.00 54 1009.3
20260506032926 68 27 0.0 0.0 0.00 0.00 0.00 54 1009.3
20260506032820 68 27 0.0 0.0 0.00 0.00 0.00 55 1009.4
20260506032718 68 27 0.0 0.0 0.00 0.00 0.00 55 1009.3
20260506032612 68 27 0.0 0.0 0.00 0.00 0.00 54 1009.3
20260506032509 68 27 0.0 0.0 0.00 0.00 0.00 54 1009.3
20260506032407 68 26 0.0 0.0 0.00 0.00 0.00 54 1009.3
20260506032305 68 27 0.0 0.0 0.00 0.00 0.00 54 1009.3
20260506031933 68 27 0.0 0.0 0.00 0.00 0.00 54 1009.4
20260506031829 68 27 0.0 0.0 0.00 0.00 0.00 54 1009.3
20260506031726 68 26 0.0 0.0 0.00 0.00 0.00 54 1009.3
20260506031619 68 27 0.0 0.0 0.00 0.00 0.00 54 1009.3
20260506031252 68 27 0.0 0.0 0.00 0.00 0.00 54 1009.3
20260506031149 68 59 0.0 0.0 0.00 0.00 0.00 54 1009.3
20260506031045 68 91 0.0 0.0 0.00 0.00 0.00 54 1009.3
20260506030940 68 91 0.0 0.0 0.00 0.00 0.00 53 1009.3
20260506030833 68 91 0.0 0.0 0.00 0.00 0.00 53 1009.3
20260506030729 68 91 0.0 0.0 0.00 0.00 0.00 53 1009.3
20260506030624 68 91 0.0 0.0 0.00 0.00 0.00 53 1009.3
20260506025813 69 113 0.0 1.0 0.00 0.00 0.00 52 1009.3
20260506025711 69 115 0.0 1.0 0.00 0.00 0.00 53 1009.3
20260506025605 69 104 0.0 1.0 0.00 0.00 0.00 52 1009.3
20260506025501 69 104 0.0 1.0 0.00 0.00 0.00 52 1009.3
20260506025359 69 104 0.0 1.0 0.00 0.00 0.00 52 1009.3
20260506025255 69 165 0.0 1.0 0.00 0.00 0.00 51 1009.3
20260506025152 69 118 0.0 1.0 0.00 0.00 0.00 51 1009.3
20260506025047 69 118 0.0 1.0 0.00 0.00 0.00 51 1009.4
20260506024943 69 85 0.0 1.0 0.00 0.00 0.00 51 1009.4
20260506024836 69 41 0.0 1.0 0.00 0.00 0.00 51 1009.4
20260506024515 69 90 0.0 0.0 0.00 0.00 0.00 51 1009.4
20260506024148 69 90 0.0 1.0 0.00 0.00 0.00 51 1009.4
20260506024041 69 90 0.0 1.0 0.00 0.00 0.00 51 1009.4
20260506023936 69 113 0.0 0.0 0.00 0.00 0.00 50 1009.3
20260506023352 70 113 0.0 1.0 0.00 0.00 0.00 50 1009.3
20260506023245 70 113 0.0 0.0 0.00 0.00 0.00 50 1009.3
20260506023141 70 113 0.0 0.0 0.00 0.00 0.00 50 1009.3
20260506023034 70 113 0.0 1.0 0.00 0.00 0.00 50 1009.3
20260506022930 70 113 0.0 1.0 0.00 0.00 0.00 49 1009.3
20260506022827 70 113 0.0 1.0 0.00 0.00 0.00 50 1009.4
20260506022725 70 113 0.0 1.0 0.00 0.00 0.00 49 1009.3
20260506021926 70 51 0.0 5.0 0.00 0.00 0.00 49 1009.4
20260506021819 70 51 0.0 5.0 0.00 0.00 0.00 48 1009.4
20260506021457 70 140 0.0 5.0 0.00 0.00 0.00 48 1009.4
20260506021354 70 109 0.0 2.0 0.00 0.00 0.00 48 1009.4
20260506021251 70 146 0.0 2.0 0.00 0.00 0.00 48 1009.4
20260506020922 70 148 0.0 1.0 0.00 0.00 0.00 48 1009.4
20260506020815 70 149 0.0 1.0 0.00 0.00 0.00 48 1009.4
20260506020709 70 198 0.0 1.0 0.00 0.00 0.00 48 1009.4
20260506020606 70 140 0.0 1.0 0.00 0.00 0.00 48 1009.4
20260506020241 70 125 0.0 1.0 0.00 0.00 0.00 48 1009.4
20260506020137 71 63 0.0 1.0 0.00 0.00 0.00 48 1009.5
20260506020030 71 143 0.0 1.0 0.00 0.00 0.00 47 1009.5
20260506015925 71 132 0.0 1.0 0.00 0.00 0.00 47 1009.5
20260506015820 71 63 0.0 1.0 0.00 0.00 0.00 48 1009.5
20260506015712 71 120 0.0 1.0 0.00 0.00 0.00 47 1009.5
20260506015349 71 197 0.0 1.0 0.00 0.00 0.00 47 1009.4
20260506015241 71 115 0.0 1.0 0.00 0.00 0.00 47 1009.3
20260506015136 71 115 0.0 1.0 0.00 0.00 0.00 46 1009.3
20260506015031 71 59 0.0 1.0 0.00 0.00 0.00 46 1009.3
20260506014704 71 81 0.0 1.0 0.00 0.00 0.00 46 1009.3
20260506014556 71 81 0.0 1.0 0.00 0.00 0.00 46 1009.3
20260506014449 71 81 0.0 0.0 0.00 0.00 0.00 46 1009.2
20260506014346 71 81 0.0 0.0 0.00 0.00 0.00 46 1009.2
20260506014239 71 57 0.0 0.0 0.00 0.00 0.00 46 1009.2
20260506014134 71 57 0.0 0.0 0.00 0.00 0.00 46 1009.2
20260506014026 71 57 0.0 2.0 0.00 0.00 0.00 46 1009.2
20260506013923 71 57 0.0 2.0 0.00 0.00 0.00 46 1009.2
20260506013819 71 57 0.0 2.0 0.00 0.00 0.00 46 1009.2
20260506013716 71 81 0.0 2.0 0.00 0.00 0.00 46 1009.2
20260506013609 71 101 0.0 2.0 0.00 0.00 0.00 46 1009.2
20260506013504 71 171 0.0 2.0 0.00 0.00 0.00 46 1009.2
20260506013358 71 121 0.0 2.0 0.00 0.00 0.00 46 1009.2
20260506013251 71 91 0.0 2.0 0.00 0.00 0.00 45 1009.1
20260506013147 71 95 0.0 2.0 0.00 0.00 0.00 46 1009.2
20260506013042 72 95 0.0 2.0 0.00 0.00 0.00 45 1009.1
20260506012935 72 95 0.0 2.0 0.00 0.00 0.00 45 1009.1
20260506012830 72 95 0.0 2.0 0.00 0.00 0.00 45 1009.2
20260506012728 72 112 0.0 2.0 0.00 0.00 0.00 44 1009.2
20260506012624 72 112 0.0 2.0 0.00 0.00 0.00 44 1009.1
20260506012517 72 112 0.0 2.0 0.00 0.00 0.00 45 1009.1
20260506012153 72 96 0.0 1.0 0.00 0.00 0.00 44 1009.1
20260506012047 72 96 0.0 1.0 0.00 0.00 0.00 44 1009.0
20260506011721 72 92 0.0 4.0 0.00 0.00 0.00 44 1009.0
20260506011356 72 130 0.0 4.0 0.00 0.00 0.00 44 1009.0
20260506010814 72 180 0.0 4.0 0.00 0.00 0.00 44 1008.9
20260506010710 72 180 0.0 4.0 0.00 0.00 0.00 43 1008.9
20260506010606 72 180 0.0 4.0 0.00 0.00 0.00 43 1008.8
20260506010503 72 17 0.0 3.0 0.00 0.00 0.00 43 1008.8
20260506010358 72 146 0.0 3.0 0.00 0.00 0.00 43 1008.8
20260506010255 72 103 0.0 3.0 0.00 0.00 0.00 43 1008.8
20260506010147 72 115 0.0 3.0 0.00 0.00 0.00 43 1008.8
20260506005818 72 105 0.0 4.0 0.00 0.00 0.00 44 1008.8
20260506005716 72 100 0.0 4.0 0.00 0.00 0.00 43 1008.8
20260506005610 73 94 0.0 4.0 0.00 0.00 0.00 43 1008.7
20260506005248 73 207 0.0 4.0 0.00 0.00 0.00 43 1008.7
20260506005143 73 84 0.0 4.0 0.00 0.00 0.00 43 1008.7
20260506004818 73 60 0.0 4.0 0.00 0.00 0.00 43 1008.7
20260506004716 73 302 0.0 4.0 0.00 0.00 0.00 42 1008.6
20260506004610 73 163 0.0 4.0 0.00 0.00 0.00 43 1008.6
20260506004506 73 140 0.0 4.0 0.00 0.00 0.00 43 1008.6
20260506004404 73 180 0.0 4.0 0.00 0.00 0.00 42 1008.6
20260506004300 73 66 0.0 4.0 0.00 0.00 0.00 42 1008.5
20260506004155 73 148 0.0 4.0 0.00 0.00 0.00 42 1008.5
20260506003832 74 59 0.0 3.0 0.00 0.00 0.00 41 1008.5
20260506003726 74 212 0.0 3.0 0.00 0.00 0.00 41 1008.5
20260506003619 74 69 0.0 3.0 0.00 0.00 0.00 42 1008.5
20260506003515 74 59 0.0 3.0 0.00 0.00 0.00 41 1008.5
20260506003411 74 213 0.0 3.0 0.00 0.00 0.00 41 1008.5
20260506003045 74 335 0.0 1.0 0.00 0.00 0.00 41 1008.4
20260506002942 74 75 0.0 1.0 0.00 0.00 0.00 40 1008.4
20260506002837 74 97 0.0 1.0 0.00 0.00 0.00 40 1008.4
20260506002731 74 221 0.0 1.0 0.00 0.00 0.00 40 1008.4
20260506002629 74 142 0.0 1.0 0.00 0.00 0.00 40 1008.3
20260506002522 75 142 0.0 1.0 0.00 0.00 0.00 40 1008.3
20260506002159 75 94 0.0 0.0 0.00 0.00 0.00 39 1008.3
20260506002053 75 123 0.0 0.0 0.00 0.00 0.00 38 1008.4
20260506001949 75 123 0.0 0.0 0.00 0.00 0.00 39 1008.3
20260506001845 75 123 0.0 0.0 0.00 0.00 0.00 38 1008.3
20260506001742 75 123 0.0 0.0 0.00 0.00 0.00 38 1008.3
20260506001639 75 123 0.0 1.0 0.00 0.00 0.00 38 1008.3
20260506001534 75 123 0.0 1.0 0.00 0.00 0.00 38 1008.3
20260506001430 75 143 0.0 0.0 0.00 0.00 0.00 38 1008.2
20260506001105 75 150 0.0 0.0 0.00 0.00 0.00 38 1008.3
20260506000958 75 150 0.0 0.0 0.00 0.00 0.00 37 1008.3
20260506000635 75 86 0.0 2.0 0.00 0.00 0.00 37 1008.3
20260506000529 75 121 0.0 2.0 0.00 0.00 0.00 37 1008.3
20260506000426 76 101 0.0 2.0 0.00 0.00 0.00 37 1008.3
20260506000319 76 111 0.0 2.0 0.00 0.00 0.00 37 1008.2
20260506000214 76 111 0.0 2.0 0.00 0.00 0.00 37 1008.3
20260506000110 76 71 0.0 0.0 0.00 0.00 0.00 37 1008.3
20260506000002 76 71 0.0 0.0 0.00 0.00 0.00 36 1008.3
20260505235855 76 71 0.0 0.0 0.00 0.00 0.00 36 1008.2
20260505235529 76 146 0.0 1.0 0.00 0.00 0.00 36 1008.1
20260505235426 76 146 0.0 1.0 0.00 0.00 0.00 36 1008.2
20260505235322 76 90 0.0 1.0 0.00 0.00 0.00 35 1008.2
20260505235217 76 135 0.0 0.0 0.00 0.00 0.00 35 1008.1
20260505235114 76 136 0.0 3.0 0.00 0.00 0.00 35 1008.1
20260505235009 76 135 0.0 3.0 0.00 0.00 0.00 35 1008.1
20260505234906 76 135 0.0 3.0 0.00 0.00 0.00 35 1008.1
20260505234759 76 136 0.0 3.0 0.00 0.00 0.00 35 1008.1
20260505234653 76 148 0.0 3.0 0.00 0.00 0.00 35 1008.1
20260505234550 76 153 0.0 3.0 0.00 0.00 0.00 36 1008.1
20260505234224 77 167 0.0 5.0 0.00 0.00 0.00 35 1008.1
20260505234117 77 129 0.0 5.0 0.00 0.00 0.00 35 1008.1
20260505234014 77 129 0.0 5.0 0.00 0.00 0.00 35 1008.1
20260505233909 77 134 0.0 5.0 0.00 0.00 0.00 34 1008.1
20260505233802 77 111 1.0 5.0 0.00 0.00 0.00 34 1008.2
20260505232953 77 28 1.0 6.0 0.00 0.00 0.00 34 1008.0
20260505232849 77 152 0.0 6.0 0.00 0.00 0.00 33 1008.1
20260505232743 77 119 0.0 6.0 0.00 0.00 0.00 34 1008.1
20260505232421 77 128 1.0 7.0 0.00 0.00 0.00 33 1008.1
20260505232313 77 243 1.0 7.0 0.00 0.00 0.00 32 1008.1
20260505232209 77 140 1.0 7.0 0.00 0.00 0.00 32 1008.2
20260505232105 77 232 0.0 7.0 0.00 0.00 0.00 33 1008.2
20260505231958 77 355 0.0 7.0 0.00 0.00 0.00 33 1008.1
20260505231851 77 259 1.0 7.0 0.00 0.00 0.00 32 1008.1
20260505231746 77 0 1.0 7.0 0.00 0.00 0.00 32 1008.1
20260505231420 77 111 1.0 8.0 0.00 0.00 0.00 32 1008.1
20260505231318 78 54 1.0 8.0 0.00 0.00 0.00 32 1008.2
20260505231214 77 160 1.0 8.0 0.00 0.00 0.00 32 1008.2
20260505231107 77 135 1.0 8.0 0.00 0.00 0.00 32 1008.2
20260505231004 78 157 1.0 8.0 0.00 0.00 0.00 31 1008.1
20260505230857 78 144 2.0 8.0 0.00 0.00 0.00 31 1008.1
20260505230750 78 140 2.0 8.0 0.00 0.00 0.00 33 1008.2
20260505230422 78 194 2.0 8.0 0.00 0.00 0.00 32 1008.1
20260505230319 78 194 2.0 8.0 0.00 0.00 0.00 33 1008.1
20260505230211 78 268 2.0 8.0 0.00 0.00 0.00 32 1008.2
20260505230106 78 92 2.0 8.0 0.00 0.00 0.00 31 1008.2
20260505230002 78 227 2.0 8.0 0.00 0.00 0.00 30 1008.1
20260505225856 78 98 2.0 8.0 0.00 0.00 0.00 30 1008.2
20260505225750 78 163 1.0 8.0 0.00 0.00 0.00 30 1008.2
20260505225646 78 180 1.0 8.0 0.00 0.00 0.00 31 1008.2
20260505225544 78 247 1.0 8.0 0.00 0.00 0.00 32 1008.1
20260505225436 78 5 1.0 7.0 0.00 0.00 0.00 31 1008.1
20260505225330 78 302 1.0 7.0 0.00 0.00 0.00 32 1008.1
20260505225227 78 151 1.0 7.0 0.00 0.00 0.00 35 1008.2
20260505224901 78 153 1.0 7.0 0.00 0.00 0.00 35 1008.0
20260505224753 78 141 1.0 7.0 0.00 0.00 0.00 34 1008.0
20260505224649 78 152 1.0 7.0 0.00 0.00 0.00 33 1008.0
20260505224544 78 205 1.0 7.0 0.00 0.00 0.00 34 1008.1
20260505224440 78 350 1.0 7.0 0.00 0.00 0.00 34 1008.1
20260505224108 78 232 1.0 6.0 0.00 0.00 0.00 33 1008.1
20260505224004 78 103 1.0 6.0 0.00 0.00 0.00 33 1008.1
20260505223857 78 182 1.0 6.0 0.00 0.00 0.00 33 1008.1
20260505223755 78 167 1.0 6.0 0.00 0.00 0.00 33 1008.0
20260505223649 79 132 1.0 6.0 0.00 0.00 0.00 33 1008.0
20260505223545 79 131 1.0 6.0 0.00 0.00 0.00 34 1008.0
20260505223443 79 225 1.0 5.0 0.00 0.00 0.00 34 1007.9
20260505223121 79 44 1.0 11.0 0.00 0.00 0.00 33 1008.0
20260505223014 79 54 1.0 11.0 0.00 0.00 0.00 33 1008.0
20260505222907 79 192 1.0 11.0 0.00 0.00 0.00 33 1008.1
20260505222800 79 139 1.0 11.0 0.00 0.00 0.00 33 1008.1
20260505222654 79 197 1.0 11.0 0.00 0.00 0.00 33 1008.1
20260505222551 79 63 1.0 11.0 0.00 0.00 0.00 33 1008.0
20260505222445 79 121 1.0 11.0 0.00 0.00 0.00 33 1008.0
20260505222342 79 109 1.0 11.0 0.00 0.00 0.00 32 1008.1
20260505222020 79 187 1.0 11.0 0.00 0.00 0.00 32 1008.0
20260505221438 79 227 2.0 11.0 0.00 0.00 0.00 31 1008.1
20260505221336 79 171 2.0 9.0 0.00 0.00 0.00 31 1008.0
20260505221234 79 221 2.0 9.0 0.00 0.00 0.00 30 1007.9
20260505220906 79 119 2.0 9.0 0.00 0.00 0.00 31 1008.0
20260505220803 79 82 2.0 9.0 0.00 0.00 0.00 31 1008.0
20260505220701 79 107 2.0 9.0 0.00 0.00 0.00 31 1008.0
20260505220555 79 59 2.0 9.0 0.00 0.00 0.00 31 1008.0
20260505220448 79 111 2.0 8.0 0.00 0.00 0.00 31 1008.2
20260505220118 79 43 2.0 8.0 0.00 0.00 0.00 31 1008.1
20260505220013 79 242 2.0 8.0 0.00 0.00 0.00 29 1008.1
20260505215908 79 228 2.0 8.0 0.00 0.00 0.00 31 1008.1
20260505215801 79 175 1.0 8.0 0.00 0.00 0.00 31 1008.1
20260505215658 80 100 1.0 8.0 0.00 0.00 0.00 31 1008.0
20260505215552 80 120 1.0 8.0 0.00 0.00 0.00 30 1008.0
20260505215445 80 128 1.0 8.0 0.00 0.00 0.00 29 1007.8
20260505215341 80 192 1.0 7.0 0.00 0.00 0.00 32 1008.1
20260505214753 80 217 2.0 20.0 0.00 0.00 0.00 30 1008.1
20260505214647 80 149 2.0 20.0 0.00 0.00 0.00 29 1008.1
20260505214543 80 15 2.0 20.0 0.00 0.00 0.00 31 1008.1
20260505214439 80 139 2.0 20.0 0.00 0.00 0.00 31 1008.0
20260505214333 80 62 2.0 20.0 0.00 0.00 0.00 31 1008.0
20260505214228 80 82 2.0 20.0 0.00 0.00 0.00 32 1008.1
20260505214120 80 157 1.0 20.0 0.00 0.00 0.00 31 1008.0
20260505214013 80 97 2.0 20.0 0.00 0.00 0.00 31 1007.9
20260505213910 80 219 2.0 20.0 0.00 0.00 0.00 31 1008.0
20260505213808 80 140 2.0 20.0 0.00 0.00 0.00 31 1008.0
20260505213703 80 220 2.0 20.0 0.00 0.00 0.00 30 1007.9
20260505213556 80 182 2.0 20.0 0.00 0.00 0.00 32 1007.9
20260505213454 80 93 2.0 20.0 0.00 0.00 0.00 32 1008.0
20260505213347 80 141 2.0 20.0 0.00 0.00 0.00 31 1008.0
20260505213024 80 56 2.0 20.0 0.00 0.00 0.00 32 1007.9
20260505212922 80 228 2.0 20.0 0.00 0.00 0.00 31 1007.9
20260505212817 80 346 1.0 9.0 0.00 0.00 0.00 32 1008.0
20260505212712 80 130 1.0 9.0 0.00 0.00 0.00 33 1007.9
20260505212609 80 236 1.0 9.0 0.00 0.00 0.00 31 1007.9
20260505212502 80 284 1.0 9.0 0.00 0.00 0.00 31 1007.8
20260505212354 81 145 1.0 9.0 0.00 0.00 0.00 33 1007.9
20260505212248 81 214 2.0 9.0 0.00 0.00 0.00 33 1007.8
20260505212146 81 34 2.0 9.0 0.00 0.00 0.00 34 1007.8
20260505212041 81 269 2.0 9.0 0.00 0.00 0.00 33 1007.8
20260505211717 81 134 1.0 9.0 0.00 0.00 0.00 33 1007.8
20260505211615 81 125 1.0 9.0 0.00 0.00 0.00 32 1007.8
20260505211249 81 226 0.0 7.0 0.00 0.00 0.00 35 1007.9
20260505211141 81 109 0.0 6.0 0.00 0.00 0.00 35 1007.9
20260505211033 81 234 1.0 6.0 0.00 0.00 0.00 35 1007.9
20260505210931 81 241 1.0 6.0 0.00 0.00 0.00 35 1007.9
20260505210829 81 255 1.0 6.0 0.00 0.00 0.00 35 1007.9
20260505210500 81 101 1.0 6.0 0.00 0.00 0.00 33 1007.8
20260505210354 81 279 1.0 6.0 0.00 0.00 0.00 33 1007.8
20260505210250 81 200 1.0 11.0 0.00 0.00 0.00 34 1007.8
20260505210143 81 27 1.0 11.0 0.00 0.00 0.00 34 1007.8
20260505210040 81 115 1.0 11.0 0.00 0.00 0.00 33 1007.8
20260505205937 81 152 1.0 11.0 0.00 0.00 0.00 31 1007.8
20260505205830 81 64 1.0 11.0 0.00 0.00 0.00 32 1007.8
20260505205727 81 297 1.0 11.0 0.00 0.00 0.00 31 1007.8
20260505205625 81 130 2.0 11.0 0.00 0.00 0.00 32 1007.8
20260505205305 81 227 3.0 11.0 0.00 0.00 0.00 31 1007.8
20260505205153 81 180 3.0 11.0 0.00 0.00 0.00 30 1007.9
20260505205047 81 51 3.0 11.0 0.00 0.00 0.00 28 1008.0
20260505204940 81 119 3.0 11.0 0.00 0.00 0.00 30 1007.9
20260505204836 81 192 3.0 11.0 0.00 0.00 0.00 29 1007.9
20260505204731 81 198 3.0 11.0 0.00 0.00 0.00 29 1008.0
20260505204624 81 259 3.0 11.0 0.00 0.00 0.00 30 1007.9
20260505204516 81 201 3.0 11.0 0.00 0.00 0.00 29 1007.8
20260505204411 81 84 3.0 11.0 0.00 0.00 0.00 29 1007.9
20260505204309 81 152 2.0 11.0 0.00 0.00 0.00 30 1007.8
20260505203946 81 147 1.0 9.0 0.00 0.00 0.00 31 1007.9
20260505203841 81 204 1.0 9.0 0.00 0.00 0.00 31 1007.8
20260505203734 82 136 1.0 9.0 0.00 0.00 0.00 31 1007.9
20260505203630 81 228 1.0 9.0 0.00 0.00 0.00 32 1007.8
20260505203522 81 148 1.0 9.0 0.00 0.00 0.00 32 1007.8
20260505203152 81 16 1.0 9.0 0.00 0.00 0.00 32 1007.9
20260505203049 81 217 1.0 9.0 0.00 0.00 0.00 32 1007.9
20260505202945 81 65 1.0 9.0 0.00 0.00 0.00 31 1007.9
20260505202839 81 188 2.0 9.0 0.00 0.00 0.00 31 1007.9
20260505202732 81 243 2.0 9.0 0.00 0.00 0.00 31 1007.9
20260505202627 81 194 2.0 9.0 0.00 0.00 0.00 31 1007.9
20260505202521 81 244 2.0 8.0 0.00 0.00 0.00 31 1007.9
20260505202418 81 51 2.0 8.0 0.00 0.00 0.00 31 1007.8
20260505202315 81 148 2.0 8.0 0.00 0.00 0.00 29 1007.9
20260505202211 81 133 2.0 8.0 0.00 0.00 0.00 31 1008.0
20260505201845 81 118 3.0 8.0 0.00 0.00 0.00 30 1007.9
20260505201743 81 123 3.0 8.0 0.00 0.00 0.00 30 1007.9
20260505201156 82 147 2.0 8.0 0.00 0.00 0.00 30 1007.9
20260505201051 82 250 2.0 8.0 0.00 0.00 0.00 31 1007.9
20260505200947 82 221 2.0 8.0 0.00 0.00 0.00 31 1008.1
20260505200843 82 65 2.0 8.0 0.00 0.00 0.00 30 1008.1
20260505200740 82 295 2.0 8.0 0.00 0.00 0.00 29 1007.9
20260505200637 82 194 2.0 8.0 0.00 0.00 0.00 31 1008.0
20260505200535 82 126 2.0 7.0 0.00 0.00 0.00 30 1008.0
20260505200431 82 180 2.0 7.0 0.00 0.00 0.00 30 1008.0
20260505200329 82 335 2.0 7.0 0.00 0.00 0.00 29 1007.9
20260505200228 82 246 2.0 7.0 0.00 0.00 0.00 29 1007.9
20260505200123 82 219 2.0 7.0 0.00 0.00 0.00 29 1008.0
20260505200021 82 224 2.0 7.0 0.00 0.00 0.00 30 1007.9
20260505195913 82 163 2.0 7.0 0.00 0.00 0.00 29 1008.0
20260505195811 82 152 2.0 7.0 0.00 0.00 0.00 29 1008.0
20260505195707 82 61 1.0 5.0 0.00 0.00 0.00 29 1008.0
20260505195339 82 288 1.0 5.0 0.00 0.00 0.00 31 1008.0
20260505195236 82 38 1.0 7.0 0.00 0.00 0.00 30 1007.9
20260505195131 82 65 1.0 7.0 0.00 0.00 0.00 29 1008.0
20260505195027 82 266 1.0 7.0 0.00 0.00 0.00 31 1008.0
20260505194923 82 44 2.0 7.0 0.00 0.00 0.00 29 1008.0
20260505194819 82 303 2.0 7.0 0.00 0.00 0.00 31 1008.0
20260505194713 82 210 2.0 7.0 0.00 0.00 0.00 30 1008.1
20260505194608 82 123 2.0 7.0 0.00 0.00 0.00 30 1007.9
20260505194501 83 355 2.0 7.0 0.00 0.00 0.00 29 1008.0
20260505194356 83 91 2.0 7.0 0.00 0.00 0.00 28 1008.0
20260505194250 83 163 2.0 7.0 0.00 0.00 0.00 29 1007.9
20260505194148 83 60 2.0 11.0 0.00 0.00 0.00 28 1008.0
20260505194040 83 223 2.0 11.0 0.00 0.00 0.00 28 1007.8
20260505193934 83 290 2.0 11.0 0.00 0.00 0.00 28 1008.0
20260505193827 83 90 2.0 11.0 0.00 0.00 0.00 29 1007.9
20260505193723 83 108 2.0 11.0 0.00 0.00 0.00 28 1008.0
20260505193356 83 209 2.0 11.0 0.00 0.00 0.00 28 1008.0
20260505193028 83 189 3.0 11.0 0.00 0.00 0.00 28 1008.1
20260505192925 83 28 3.0 11.0 0.00 0.00 0.00 28 1008.1
20260505192819 83 198 3.0 11.0 0.00 0.00 0.00 29 1008.1
20260505192455 83 300 3.0 11.0 0.00 0.00 0.00 28 1008.1
20260505192350 83 89 3.0 11.0 0.00 0.00 0.00 28 1008.3
20260505192246 83 272 3.0 9.0 0.00 0.00 0.00 26 1008.2
20260505192139 83 158 2.0 9.0 0.00 0.00 0.00 29 1008.3
20260505192035 83 84 2.0 9.0 0.00 0.00 0.00 28 1008.2
20260505191930 83 86 2.0 9.0 0.00 0.00 0.00 27 1008.3
20260505191823 84 274 2.0 9.0 0.00 0.00 0.00 30 1008.3
20260505191722 83 142 2.0 9.0 0.00 0.00 0.00 27 1008.3
20260505191359 83 244 2.0 9.0 0.00 0.00 0.00 28 1008.5
20260505191035 83 284 2.0 8.0 0.00 0.00 0.00 28 1008.5
20260505190929 83 132 2.0 8.0 0.00 0.00 0.00 31 1008.6
20260505190823 83 155 2.0 8.0 0.00 0.00 0.00 29 1008.5
20260505190716 83 189 2.0 8.0 0.00 0.00 0.00 27 1008.5
20260505190614 84 136 2.0 8.0 0.00 0.00 0.00 28 1008.5
20260505190509 84 119 2.0 8.0 0.00 0.00 0.00 30 1008.5
20260505190402 84 13 2.0 8.0 0.00 0.00 0.00 28 1008.6
20260505190300 84 156 2.0 8.0 0.00 0.00 0.00 26 1008.6
20260505190154 84 249 2.0 8.0 0.00 0.00 0.00 27 1008.7
20260505190051 84 142 2.0 8.0 0.00 0.00 0.00 27 1008.6
20260505185948 83 204 2.0 8.0 0.00 0.00 0.00 28 1008.7
20260505185844 83 355 2.0 8.0 0.00 0.00 0.00 28 1008.7
20260505185738 84 15 2.0 8.0 0.00 0.00 0.00 28 1008.7
20260505185634 84 115 2.0 8.0 0.00 0.00 0.00 29 1008.7
20260505185526 84 144 2.0 8.0 0.00 0.00 0.00 28 1008.8
20260505185200 83 155 3.0 12.0 0.00 0.00 0.00 28 1008.9
20260505185056 83 54 3.0 12.0 0.00 0.00 0.00 28 1009.0
20260505184948 83 196 3.0 12.0 0.00 0.00 0.00 28 1008.9
20260505184846 83 160 3.0 12.0 0.00 0.00 0.00 30 1008.9
20260505184740 83 293 3.0 12.0 0.00 0.00 0.00 27 1008.9
20260505184634 83 219 3.0 12.0 0.00 0.00 0.00 27 1008.9
20260505184526 83 105 3.0 12.0 0.00 0.00 0.00 29 1009.1
20260505184419 83 46 3.0 12.0 0.00 0.00 0.00 31 1008.9
20260505184055 84 283 3.0 12.0 0.00 0.00 0.00 31 1009.0
20260505183951 84 157 3.0 12.0 0.00 0.00 0.00 29 1009.1
20260505183845 84 262 3.0 12.0 0.00 0.00 0.00 31 1009.1
20260505183739 84 88 3.0 12.0 0.00 0.00 0.00 29 1009.1
20260505183633 84 259 2.0 12.0 0.00 0.00 0.00 31 1009.1
20260505183308 84 180 2.0 12.0 0.00 0.00 0.00 29 1009.2
20260505183206 84 185 1.0 9.0 0.00 0.00 0.00 31 1009.2
20260505183059 84 80 1.0 7.0 0.00 0.00 0.00 30 1009.4
20260505182953 84 112 1.0 7.0 0.00 0.00 0.00 32 1009.3
20260505182847 84 197 1.0 7.0 0.00 0.00 0.00 33 1009.4
20260505182740 84 91 1.0 7.0 0.00 0.00 0.00 31 1009.4
20260505182638 84 259 1.0 7.0 0.00 0.00 0.00 31 1009.4
20260505182531 84 264 1.0 7.0 0.00 0.00 0.00 32 1009.3
20260505182425 84 182 2.0 7.0 0.00 0.00 0.00 30 1009.3
20260505181840 83 115 2.0 7.0 0.00 0.00 0.00 31 1009.4
20260505181735 83 213 2.0 7.0 0.00 0.00 0.00 30 1009.4
20260505181629 83 275 2.0 8.0 0.00 0.00 0.00 30 1009.4
20260505181524 83 92 2.0 8.0 0.00 0.00 0.00 30 1009.4
20260505181418 84 53 2.0 8.0 0.00 0.00 0.00 31 1009.4
20260505181314 83 109 2.0 8.0 0.00 0.00 0.00 33 1009.4
20260505181209 83 104 2.0 8.0 0.00 0.00 0.00 31 1009.5
20260505181104 83 335 2.0 8.0 0.00 0.00 0.00 32 1009.5
20260505180959 83 176 2.0 8.0 0.00 0.00 0.00 29 1009.5
20260505180638 84 135 2.0 8.0 0.00 0.00 0.00 31 1009.5
20260505180531 84 182 2.0 8.0 0.00 0.00 0.00 32 1009.6
20260505180429 84 123 2.0 8.0 0.00 0.00 0.00 30 1009.6
20260505180322 84 274 2.0 8.0 0.00 0.00 0.00 30 1009.6
20260505175735 85 244 2.0 8.0 0.00 0.00 0.00 32 1009.5
20260505175632 85 264 1.0 7.0 0.00 0.00 0.00 33 1009.6
20260505175525 85 5 2.0 7.0 0.00 0.00 0.00 32 1009.6
20260505175158 86 205 2.0 7.0 0.00 0.00 0.00 33 1009.7
20260505175053 86 125 2.0 7.0 0.00 0.00 0.00 31 1009.7
20260505174948 86 95 2.0 7.0 0.00 0.00 0.00 31 1009.6
20260505174841 86 180 2.0 7.0 0.00 0.00 0.00 32 1009.7
20260505174736 86 157 2.0 7.0 0.00 0.00 0.00 31 1009.6
20260505174634 86 248 2.0 7.0 0.00 0.00 0.00 33 1009.6
20260505174530 86 276 2.0 7.0 0.00 0.00 0.00 33 1009.7
20260505174424 86 40 2.0 7.0 0.00 0.00 0.00 32 1009.7
20260505174322 86 221 1.0 6.0 0.00 0.00 0.00 32 1009.8
20260505174219 86 79 1.0 6.0 0.00 0.00 0.00 33 1009.6
20260505173854 86 193 1.0 11.0 0.00 0.00 0.00 32 1009.8
20260505173750 86 311 1.0 11.0 0.00 0.00 0.00 34 1009.8
20260505173647 86 193 1.0 11.0 0.00 0.00 0.00 34 1009.7
20260505173541 86 71 1.0 11.0 0.00 0.00 0.00 33 1009.8
20260505173436 85 150 1.0 11.0 0.00 0.00 0.00 35 1009.7
20260505173333 85 346 2.0 11.0 0.00 0.00 0.00 31 1009.7
20260505173230 85 209 2.0 11.0 0.00 0.00 0.00 32 1009.7
20260505172648 86 117 2.0 11.0 0.00 0.00 0.00 33 1009.8
20260505172543 86 69 2.0 11.0 0.00 0.00 0.00 32 1009.7
20260505172436 86 148 2.0 11.0 0.00 0.00 0.00 33 1009.8
20260505172333 86 92 2.0 11.0 0.00 0.00 0.00 32 1009.9
20260505172229 86 284 2.0 11.0 0.00 0.00 0.00 33 1009.8
20260505172126 86 95 2.0 11.0 0.00 0.00 0.00 33 1009.9
20260505172018 86 226 2.0 8.0 0.00 0.00 0.00 33 1009.9
20260505171914 86 136 2.0 8.0 0.00 0.00 0.00 33 1009.8
20260505171808 86 142 2.0 8.0 0.00 0.00 0.00 31 1009.8
20260505171700 86 114 2.0 8.0 0.00 0.00 0.00 33 1009.9
20260505171556 86 171 2.0 8.0 0.00 0.00 0.00 33 1009.8
20260505171453 86 172 2.0 8.0 0.00 0.00 0.00 33 1009.8
20260505171348 86 193 2.0 14.0 0.00 0.00 0.00 34 1009.8
20260505171024 86 311 1.0 14.0 0.00 0.00 0.00 32 1009.9
20260505170917 86 163 1.0 14.0 0.00 0.00 0.00 33 1009.8
20260505170814 85 122 1.0 14.0 0.00 0.00 0.00 34 1009.9
20260505170712 85 117 2.0 14.0 0.00 0.00 0.00 33 1009.9
20260505170608 85 274 2.0 14.0 0.00 0.00 0.00 33 1009.9
20260505170505 85 277 1.0 14.0 0.00 0.00 0.00 34 1009.9
20260505170400 85 172 2.0 14.0 0.00 0.00 0.00 33 1010.1
20260505165819 86 188 2.0 14.0 0.00 0.00 0.00 34 1010.1
20260505165716 86 335 1.0 14.0 0.00 0.00 0.00 32 1010.2
20260505165613 86 227 1.0 14.0 0.00 0.00 0.00 33 1010.1
20260505165507 86 165 1.0 14.0 0.00 0.00 0.00 32 1010.1
20260505165405 86 167 1.0 8.0 0.00 0.00 0.00 32 1010.1
20260505165305 86 257 1.0 8.0 0.00 0.00 0.00 33 1010.1
20260505165200 86 112 1.0 8.0 0.00 0.00 0.00 35 1010.1
20260505165053 86 119 1.0 8.0 0.00 0.00 0.00 36 1010.1
20260505164951 85 45 1.0 8.0 0.00 0.00 0.00 34 1010.1
20260505164848 85 327 1.0 8.0 0.00 0.00 0.00 32 1010.2
20260505164744 85 17 2.0 8.0 0.00 0.00 0.00 35 1010.2
20260505164639 85 236 2.0 8.0 0.00 0.00 0.00 37 1010.3
20260505164534 85 169 1.0 8.0 0.00 0.00 0.00 36 1010.3
20260505164429 85 115 1.0 5.0 0.00 0.00 0.00 34 1010.4
20260505164325 85 99 1.0 5.0 0.00 0.00 0.00 37 1010.3
20260505164223 85 165 1.0 5.0 0.00 0.00 0.00 35 1010.3
20260505163856 84 202 1.0 8.0 0.00 0.00 0.00 35 1010.4
20260505163534 84 38 1.0 8.0 0.00 0.00 0.00 35 1010.4
20260505163206 84 297 2.0 8.0 0.00 0.00 0.00 34 1010.4
20260505163100 84 150 2.0 8.0 0.00 0.00 0.00 35 1010.4
20260505162955 84 101 1.0 8.0 0.00 0.00 0.00 35 1010.4
20260505162148 84 211 1.0 9.0 0.00 0.00 0.00 36 1010.6
20260505162041 84 155 1.0 9.0 0.00 0.00 0.00 35 1010.6
20260505161934 84 220 1.0 9.0 0.00 0.00 0.00 36 1010.6
20260505161830 84 190 1.0 9.0 0.00 0.00 0.00 36 1010.7
20260505161726 84 22 1.0 9.0 0.00 0.00 0.00 35 1010.8
20260505161619 84 230 1.0 9.0 0.00 0.00 0.00 34 1010.8
20260505161255 84 277 1.0 9.0 0.00 0.00 0.00 34 1010.8
20260505160930 84 344 1.0 9.0 0.00 0.00 0.00 34 1010.9
20260505160824 84 219 1.0 9.0 0.00 0.00 0.00 34 1011.0
20260505160505 84 227 1.0 9.0 0.00 0.00 0.00 36 1011.0
20260505160359 84 355 1.0 9.0 0.00 0.00 0.00 36 1011.0
20260505160254 84 75 1.0 9.0 0.00 0.00 0.00 35 1011.0
20260505160152 84 120 1.0 9.0 0.00 0.00 0.00 34 1011.1
20260505153356 83 202 1.0 7.0 0.00 0.00 0.00 37 1011.3
20260505153252 82 126 1.0 7.0 0.00 0.00 0.00 38 1011.3
20260505153150 82 153 1.0 7.0 0.00 0.00 0.00 39 1011.3
20260505153044 82 140 1.0 7.0 0.00 0.00 0.00 37 1011.3
20260505152941 82 130 1.0 7.0 0.00 0.00 0.00 36 1011.3
20260505152837 82 321 0.0 7.0 0.00 0.00 0.00 36 1011.3
20260505152514 82 43 1.0 7.0 0.00 0.00 0.00 37 1011.3
20260505152411 82 229 1.0 7.0 0.00 0.00 0.00 38 1011.3
20260505152307 82 46 1.0 7.0 0.00 0.00 0.00 38 1011.3
20260505152202 81 155 1.0 7.0 0.00 0.00 0.00 37 1011.2
20260505152055 81 212 1.0 7.0 0.00 0.00 0.00 37 1011.3
20260505151951 81 221 1.0 7.0 0.00 0.00 0.00 37 1011.2
20260505151848 81 145 1.0 7.0 0.00 0.00 0.00 37 1011.2
20260505151742 81 282 1.0 7.0 0.00 0.00 0.00 38 1011.2
20260505151421 81 161 1.0 6.0 0.00 0.00 0.00 39 1011.2
20260505151318 81 205 1.0 6.0 0.00 0.00 0.00 40 1011.1
20260505151211 81 229 1.0 6.0 0.00 0.00 0.00 40 1011.2
20260505150847 81 173 0.0 6.0 0.00 0.00 0.00 39 1011.2
20260505150740 81 205 0.0 6.0 0.00 0.00 0.00 38 1011.3
20260505150415 80 244 1.0 6.0 0.00 0.00 0.00 39 1011.2
20260505150307 80 235 1.0 6.0 0.00 0.00 0.00 38 1011.2
20260505150202 80 88 1.0 6.0 0.00 0.00 0.00 40 1011.3
20260505140556 73 215 0.0 6.0 0.00 0.00 0.00 48 1011.4
20260505140453 73 141 0.0 6.0 0.00 0.00 0.00 48 1011.5
20260505140346 73 117 0.0 6.0 0.00 0.00 0.00 48 1011.6
20260505140242 73 169 0.0 6.0 0.00 0.00 0.00 49 1011.6
20260505140136 73 39 0.0 6.0 0.00 0.00 0.00 50 1011.5